カタログに戻る

ERMIS3

運用中科学SSO
NORAD 68425·PAYLOAD·🇬🇷 Greece

打ち上げ Mar 30, 2026 から Vandenberg Space Force Base

Loading…

次のパス (今後24時間)

TLE

最新Source: Space-Track

元期: Sep 14, 2026, 07:14 UTC

1 68425U 26067K   26257.30164263  .00004779  00000-0  22734-3 0  9991
2 68425  97.4684 214.7949 0002922  57.7701 302.3817 15.19649257 25474

AllMySatでERMIS3をリアルタイム追跡

Download on the App Store